When you browse on this site, cookies collect data to enhance your experience and personalize the content and advertising you see.
Visit our Privacy Policy to learn more. By continuing to use the site, you agree to this use of cookies and data.
  • In Spain
  • List of Countries
  • For 7 days
  • Water Temperature
  • Weather Map
  • Weather Widgets
  • user-avatar
    Login

    Hourly Weather Batina

    Today, 18 August, Sunday

    Time Temperature Precipitation Wind Pressure Humidity
    00:00 +26°C° 0 mm 1 mps 672 mmHg 42%
    01:00 +25°C° 0 mm 1 mps 672 mmHg 41%
    02:00 +25°C° 0 mm 2 mps 672 mmHg 41%
    03:00 +25°C° 0 mm 2 mps 672 mmHg 40%
    04:00 +25°C° 0 mm 2 mps 672 mmHg 39%
    05:00 +26°C° 0 mm 2 mps 672 mmHg 37%
    06:00 +26°C° 0 mm 2 mps 672 mmHg 36%
    07:00 +28°C° 0 mm 4 mps 673 mmHg 32%
    08:00 +30°C° 0 mm 6 mps 673 mmHg 28%
    09:00 +33°C° 0 mm 8 mps 674 mmHg 24%
    10:00 +34°C° 0 mm 8 mps 674 mmHg 23%
    11:00 +35°C° 0 mm 8 mps 674 mmHg 22%
    12:00 +35°C° 0 mm 8 mps 674 mmHg 20%
    13:00 +36°C° 0 mm 7 mps 673 mmHg 20%
    14:00 +36°C° 0 mm 7 mps 673 mmHg 19%
    15:00 +36°C° 0 mm 6 mps 672 mmHg 19%
    16:00 +35°C° 0 mm 4 mps 672 mmHg 19%
    17:00 +34°C° 0 mm 3 mps 672 mmHg 20%
    18:00 +33°C° 0 mm 1 mps 672 mmHg 21%
    19:00 +32°C° 0 mm 2 mps 672 mmHg 23%
    20:00 +30°C° 0 mm 2 mps 672 mmHg 25%
    21:00 +29°C° 0 mm 2 mps 672 mmHg 26%
    22:00 +28°C° 0 mm 2 mps 672 mmHg 28%
    23:00 +28°C° 0 mm 2 mps 671 mmHg 31%

    Tomorrow, 19 August, Monday

    Time Temperature Precipitation Wind Pressure Humidity
    00:00 +27°C° 0 mm 1 mps 671 mmHg 33%
    01:00 +26°C° 0 mm 1 mps 671 mmHg 34%
    02:00 +26°C° 0 mm 1 mps 671 mmHg 34%
    03:00 +25°C° 0 mm 1 mps 670 mmHg 35%
    04:00 +26°C° 0 mm 1 mps 671 mmHg 34%
    05:00 +27°C° 0 mm 1 mps 671 mmHg 33%
    06:00 +27°C° 0 mm 1 mps 671 mmHg 32%
    07:00 +29°C° 0 mm 1 mps 672 mmHg 28%
    08:00 +31°C° 0 mm 1 mps 673 mmHg 24%
    09:00 +34°C° 0 mm 2 mps 673 mmHg 21%
    10:00 +35°C° 0 mm 2 mps 673 mmHg 19%
    11:00 +36°C° 0 mm 3 mps 674 mmHg 18%
    12:00 +37°C° 0 mm 3 mps 674 mmHg 16%
    13:00 +37°C° 0 mm 3 mps 673 mmHg 16%
    14:00 +37°C° 0 mm 4 mps 673 mmHg 16%
    15:00 +37°C° 0 mm 4 mps 672 mmHg 15%
    16:00 +36°C° 0 mm 4 mps 672 mmHg 16%
    17:00 +35°C° 0 mm 3 mps 672 mmHg 17%
    18:00 +35°C° 0 mm 3 mps 672 mmHg 18%
    19:00 +33°C° 0 mm 3 mps 672 mmHg 24%
    20:00 +30°C° 0 mm 2 mps 672 mmHg 30%
    21:00 +28°C° 0 mm 2 mps 672 mmHg 36%
    22:00 +27°C° 0 mm 2 mps 672 mmHg 38%
    23:00 +26°C° 0 mm 2 mps 672 mmHg 40%

    Day after tomorrow, 20 August, Tuesday

    Time Temperature Precipitation Wind Pressure Humidity
    00:00 +26°C° 0 mm 1 mps 672 mmHg 41%
    01:00 +25°C° 0 mm 1 mps 671 mmHg 42%
    02:00 +25°C° 0 mm 1 mps 671 mmHg 43%
    03:00 +24°C° 0 mm 1 mps 671 mmHg 45%
    04:00 +25°C° 0 mm 1 mps 671 mmHg 42%
    05:00 +26°C° 0 mm 1 mps 671 mmHg 40%
    06:00 +26°C° 0 mm 1 mps 672 mmHg 38%
    07:00 +28°C° 0 mm 1 mps 673 mmHg 33%
    08:00 +30°C° 0 mm 2 mps 673 mmHg 27%
    09:00 +32°C° 0 mm 2 mps 674 mmHg 22%
    10:00 +34°C° 0 mm 3 mps 674 mmHg 20%
    11:00 +35°C° 0 mm 4 mps 674 mmHg 18%
    12:00 +36°C° 0 mm 4 mps 674 mmHg 16%
    13:00 +37°C° 0 mm 4 mps 674 mmHg 17%
    14:00 +37°C° 0 mm 5 mps 673 mmHg 17%
    15:00 +37°C° 0 mm 5 mps 673 mmHg 17%
    16:00 +36°C° 0 mm 5 mps 673 mmHg 19%
    17:00 +34°C° 0 mm 5 mps 673 mmHg 20%
    18:00 +33°C° 0 mm 5 mps 673 mmHg 22%
    19:00 +32°C° 0 mm 4 mps 673 mmHg 26%
    20:00 +29°C° 0 mm 3 mps 673 mmHg 30%
    21:00 +28°C° 0 mm 2 mps 673 mmHg 33%
    22:00 +27°C° 0 mm 2 mps 673 mmHg 35%
    23:00 +26°C° 0 mm 2 mps 673 mmHg 37%

    21 August, Wednesday

    Time Temperature Precipitation Wind Pressure Humidity
    00:00 +26°C° 0 mm 2 mps 673 mmHg 39%
    01:00 +25°C° 0 mm 2 mps 673 mmHg 40%
    02:00 +24°C° 0 mm 1 mps 672 mmHg 42%
    03:00 +24°C° 0 mm 1 mps 672 mmHg 44%
    04:00 +24°C° 0 mm 1 mps 673 mmHg 44%
    05:00 +25°C° 0 mm 1 mps 673 mmHg 43%
    06:00 +25°C° 0 mm 1 mps 673 mmHg 43%
    07:00 +26°C° 0 mm 1 mps 674 mmHg 39%
    08:00 +28°C° 0 mm 1 mps 674 mmHg 35%
    09:00 +29°C° 0 mm 2 mps 675 mmHg 32%
    10:00 +30°C° 0 mm 2 mps 675 mmHg 30%
    11:00 +32°C° 0 mm 2 mps 675 mmHg 28%
    12:00 +34°C° 0 mm 3 mps 675 mmHg 26%
    13:00 +34°C° 0 mm 3 mps 674 mmHg 25%
    14:00 +34°C° 0 mm 4 mps 674 mmHg 24%
    15:00 +35°C° 0 mm 4 mps 674 mmHg 24%
    16:00 +34°C° 0 mm 4 mps 674 mmHg 26%
    17:00 +33°C° 0 mm 4 mps 674 mmHg 28%
    18:00 +32°C° 0 mm 4 mps 673 mmHg 30%
    19:00 +29°C° 0 mm 3 mps 673 mmHg 38%
    20:00 +28°C° 0 mm 3 mps 673 mmHg 46%
    21:00 +26°C° 0 mm 2 mps 673 mmHg 55%
    22:00 +25°C° 0 mm 2 mps 673 mmHg 57%
    23:00 +25°C° 0 mm 2 mps 673 mmHg 58%

    22 August, Thursday

    Time Temperature Precipitation Wind Pressure Humidity
    00:00 +24°C° 0 mm 2 mps 673 mmHg 60%
    01:00 +24°C° 0 mm 1 mps 673 mmHg 61%
    02:00 +23°C° 0 mm 1 mps 672 mmHg 62%
    03:00 +21°C° 0 mm 0 mps 672 mmHg 63%
    04:00 +21°C° 0 mm 0 mps 672 mmHg 61%
    05:00 +22°C° 0 mm 0 mps 673 mmHg 59%
    06:00 +23°C° 0 mm 0 mps 673 mmHg 56%
    07:00 +26°C° 0 mm 1 mps 674 mmHg 50%
    08:00 +28°C° 0 mm 1 mps 674 mmHg 45%
    09:00 +29°C° 0 mm 2 mps 675 mmHg 39%
    10:00 +30°C° 0 mm 3 mps 675 mmHg 35%
    11:00 +33°C° 0 mm 4 mps 675 mmHg 32%
    12:00 +34°C° 0 mm 4 mps 675 mmHg 29%
    13:00 +34°C° 0 mm 5 mps 674 mmHg 28%
    14:00 +34°C° 0 mm 5 mps 674 mmHg 27%
    15:00 +34°C° 0 mm 5 mps 674 mmHg 26%
    16:00 +33°C° 0 mm 4 mps 674 mmHg 29%
    17:00 +32°C° 0 mm 4 mps 673 mmHg 31%
    18:00 +31°C° 0 mm 3 mps 673 mmHg 33%
    19:00 +29°C° 0 mm 3 mps 673 mmHg 41%
    20:00 +27°C° 0 mm 2 mps 673 mmHg 49%
    21:00 +25°C° 0 mm 2 mps 673 mmHg 58%
    22:00 +25°C° 0 mm 2 mps 673 mmHg 59%
    23:00 +25°C° 0 mm 1 mps 673 mmHg 60%

    23 August, Friday

    Time Temperature Precipitation Wind Pressure Humidity
    00:00 +24°C° 0 mm 1 mps 672 mmHg 62%
    01:00 +24°C° 0 mm 1 mps 672 mmHg 62%
    02:00 +23°C° 0 mm 1 mps 672 mmHg 62%
    03:00 +23°C° 0 mm 1 mps 672 mmHg 63%
    04:00 +24°C° 0 mm 1 mps 672 mmHg 60%
    05:00 +24°C° 0 mm 1 mps 672 mmHg 58%
    06:00 +24°C° 0 mm 1 mps 673 mmHg 56%
    07:00 +26°C° 0 mm 2 mps 673 mmHg 48%
    08:00 +28°C° 0 mm 3 mps 674 mmHg 40%
    09:00 +30°C° 0 mm 4 mps 674 mmHg 32%
    10:00 +32°C° 0 mm 5 mps 674 mmHg 29%
    11:00 +33°C° 0 mm 6 mps 674 mmHg 26%
    12:00 +34°C° 0 mm 7 mps 674 mmHg 23%
    13:00 +34°C° 0 mm 6 mps 673 mmHg 24%
    14:00 +34°C° 0 mm 6 mps 673 mmHg 24%
    15:00 +34°C° 0 mm 6 mps 672 mmHg 24%
    16:00 +33°C° 0 mm 5 mps 672 mmHg 26%
    17:00 +32°C° 0 mm 4 mps 672 mmHg 27%
    18:00 +31°C° 0 mm 3 mps 672 mmHg 29%
    19:00 +29°C° 0 mm 2 mps 672 mmHg 34%
    20:00 +28°C° 0 mm 2 mps 672 mmHg 40%
    21:00 +27°C° 0 mm 1 mps 672 mmHg 46%
    22:00 +26°C° 0 mm 1 mps 671 mmHg 48%
    23:00 +25°C° 0 mm 1 mps 671 mmHg 51%
    Show more